contact:dominique.lefevre@mio.osupytheas.fr, maurice.libes@osupytheas.fr, didier.mallarino@osupytheas.fr
Project:EMSO http://www.emso-fr.org/EMSO-France
Depth: 2436.0 m
Title:EMSO Ligure Ouest : Data MII capteur AQUADOPP
Date,Latitude,Longitude,X_East,Y_North,Z_Up,Amplitude_X,Amplitude_Y,Amplitude_Z,Batterie,SoundSpeed,Heading,Pitch,Roll,Pressure,TIS,Speed,Direction
, degrees North, degrees East, m.s-1, m.s-1,m.s-1, 1, 1, 1, Volt, m.s-1, degree, degree, degree, dbar, degree_C, m.s-1, degree
2020-01-28T00:04:03,42.805,6.029,-0.012,0.007,0.002,107.0,114.0,104.0,13.3,1505.3,325.8,-0.7,1.8,2470.128,13.32,0.013,300.3
2020-01-28T00:07:03,42.805,6.029,-0.01,0.03,0.035,106.0,115.0,102.0,13.4,1505.3,325.7,-0.7,1.8,2470.188,13.33,0.031,341.6
2020-01-28T00:10:03,42.805,6.029,-0.018,0.009,-0.004,105.0,113.0,103.0,13.4,1505.3,323.8,-0.7,1.8,2470.156,13.33,0.02,296.6
2020-01-28T00:13:03,42.805,6.029,-0.019,0.015,0.001,104.0,112.0,102.0,13.4,1505.3,324.7,-0.7,1.8,2470.146,13.33,0.024,308.3
2020-01-28T00:16:03,42.805,6.029,-0.01,0.003,-0.003,105.0,113.0,102.0,13.4,1505.3,323.3,-0.8,1.8,2470.116,13.33,0.01,286.7
2020-01-28T00:19:03,42.805,6.029,-0.008,0.006,-0.033,107.0,113.0,102.0,13.4,1505.4,327.2,-0.7,1.9,2470.126,13.34,0.01,306.9
2020-01-28T00:22:03,42.805,6.029,-0.015,0.012,-0.031,105.0,114.0,103.0,13.4,1505.4,324.6,-0.7,1.8,2470.107,13.34,0.019,308.7
2020-01-28T00:25:03,42.805,6.029,-0.02,0.009,0.011,105.0,114.0,103.0,13.4,1505.4,326.0,-0.7,1.8,2470.117,13.34,0.021,294.2
2020-01-28T00:28:03,42.805,6.029,-0.034,0.04,-0.036,109.0,113.0,102.0,13.4,1505.4,327.6,-0.7,1.8,2470.139,13.34,0.052,319.6
2020-01-28T00:31:03,42.805,6.029,-0.016,0.019,-0.016,105.0,114.0,103.0,13.4,1505.4,327.0,-0.7,1.8,2470.11,13.34,0.024,319.9
2020-01-28T00:34:03,42.805,6.029,-0.013,0.004,-0.035,106.0,113.0,103.0,13.4,1505.4,327.9,-0.7,1.8,2470.028,13.34,0.013,287.1
2020-01-28T00:37:03,42.805,6.029,-0.003,0.018,0.02,108.0,115.0,103.0,13.4,1505.4,325.7,-0.7,1.8,2470.1,13.34,0.018,350.5
2020-01-28T00:40:03,42.805,6.029,-0.029,0.015,-0.015,107.0,115.0,104.0,13.4,1505.4,328.5,-0.8,1.8,2470.173,13.34,0.032,297.4
2020-01-28T00:43:03,42.805,6.029,-0.016,0.023,-0.042,108.0,115.0,103.0,13.4,1505.4,323.4,-0.8,1.9,2470.122,13.34,0.028,325.2
2020-01-28T00:46:03,42.805,6.029,-0.028,0.003,-0.061,107.0,113.0,103.0,13.4,1505.4,326.8,-0.7,1.8,2470.091,13.34,0.028,276.1
2020-01-28T00:49:03,42.805,6.029,-0.036,0.012,0.009,108.0,115.0,103.0,13.4,1505.4,327.5,-0.7,1.8,2470.113,13.34,0.037,288.4
2020-01-28T00:52:03,42.805,6.029,-0.015,0.014,0.003,107.0,114.0,104.0,13.4,1505.4,323.4,-0.7,1.8,2470.07,13.34,0.02,313.0
2020-01-28T00:55:02,42.805,6.029,-0.007,0.004,0.004,107.0,114.0,103.0,13.4,1505.4,326.0,-0.7,1.8,2470.097,13.34,0.008,299.7
2020-01-28T00:58:02,42.805,6.029,-0.031,0.009,-0.033,108.0,114.0,103.0,13.4,1505.4,325.0,-0.8,1.8,2470.095,13.34,0.032,286.2
2020-01-28T01:04:03,42.805,6.029,-0.02,0.033,-0.006,107.0,116.0,104.0,13.4,1505.3,325.7,-0.7,1.8,2470.127,13.32,0.038,328.8
2020-01-28T01:07:02,42.805,6.029,-0.035,0.005,-0.012,108.0,113.0,103.0,13.4,1505.3,325.5,-0.7,1.8,2470.097,13.33,0.035,278.1
2020-01-28T01:10:03,42.805,6.029,-0.016,-0.004,-0.017,107.0,113.0,103.0,13.4,1505.3,326.9,-0.7,1.9,2470.1,13.33,0.016,256.0
2020-01-28T01:13:02,42.805,6.029,-0.025,0.017,-0.026,109.0,114.0,101.0,13.4,1505.3,328.4,-0.7,1.8,2470.102,13.33,0.03,304.2
2020-01-28T01:16:02,42.805,6.029,-0.013,0.022,-0.019,106.0,114.0,103.0,13.4,1505.3,323.2,-0.7,1.9,2470.109,13.33,0.025,329.4
2020-01-28T01:19:03,42.805,6.029,-0.035,0.01,-0.047,108.0,113.0,103.0,13.4,1505.3,325.9,-0.7,1.8,2470.082,13.33,0.036,285.9
2020-01-28T01:22:02,42.805,6.029,-0.004,0.01,0.028,105.0,114.0,103.0,13.4,1505.4,324.2,-0.7,1.8,2470.051,13.34,0.01,338.2
2020-01-28T01:25:02,42.805,6.029,-0.02,0.007,-0.029,105.0,115.0,103.0,13.4,1505.4,328.8,-0.7,1.8,2470.125,13.34,0.021,289.3
2020-01-28T01:28:02,42.805,6.029,-0.02,0.006,-0.007,105.0,113.0,102.0,13.3,1505.4,323.3,-0.7,1.8,2470.118,13.34,0.02,286.7
2020-01-28T01:31:02,42.805,6.029,-0.023,0.014,-0.023,105.0,114.0,102.0,13.3,1505.4,326.2,-0.7,1.8,2470.123,13.34,0.026,301.3
2020-01-28T01:34:02,42.805,6.029,-0.019,0.007,-0.029,105.0,114.0,103.0,13.3,1505.4,326.2,-0.7,1.9,2470.111,13.34,0.02,290.2
2020-01-28T01:37:02,42.805,6.029,0.003,0.02,-0.002,107.0,114.0,102.0,13.4,1505.4,324.5,-0.7,1.8,2470.067,13.34,0.02,8.5
2020-01-28T01:40:02,42.805,6.029,-0.018,0.012,-0.04,107.0,115.0,102.0,13.4,1505.4,324.6,-0.7,1.8,2470.06,13.34,0.021,303.7
2020-01-28T01:43:02,42.805,6.029,-0.016,0.012,0.009,105.0,115.0,103.0,13.4,1505.4,324.6,-0.7,1.9,2470.086,13.34,0.02,306.9
2020-01-28T01:46:02,42.805,6.029,-0.006,0.02,0.0,108.0,114.0,102.0,13.4,1505.4,325.2,-0.7,1.8,2470.071,13.34,0.02,343.3
2020-01-28T01:49:02,42.805,6.029,-0.027,0.009,-0.027,106.0,114.0,102.0,13.4,1505.4,328.4,-0.7,1.9,2470.103,13.34,0.028,288.4
2020-01-28T01:52:02,42.805,6.029,-0.018,0.029,-0.034,107.0,113.0,102.0,13.3,1505.4,326.9,-0.7,1.8,2470.086,13.34,0.034,328.2
2020-01-28T01:55:02,42.805,6.029,-0.035,0.018,-0.016,106.0,114.0,102.0,13.4,1505.4,324.5,-0.7,1.8,2470.078,13.34,0.039,297.2
2020-01-28T01:58:02,42.805,6.029,-0.016,0.016,-0.03,104.0,113.0,101.0,13.4,1505.4,326.9,-0.7,1.8,2470.037,13.34,0.022,315.0
2020-01-28T02:04:02,42.805,6.029,-0.022,0.01,-0.016,105.0,114.0,102.0,13.4,1505.3,324.8,-0.7,1.8,2470.144,13.32,0.024,294.4
2020-01-28T02:07:02,42.805,6.029,-0.01,0.024,-0.022,107.0,115.0,103.0,13.3,1505.3,323.2,-0.7,1.8,2470.122,13.33,0.026,337.4
2020-01-28T02:10:02,42.805,6.029,-0.012,0.001,0.007,106.0,113.0,103.0,13.3,1505.3,324.4,-0.8,1.8,2470.034,13.33,0.012,274.8
2020-01-28T02:13:02,42.805,6.029,-0.022,0.005,-0.029,106.0,115.0,102.0,13.4,1505.3,325.0,-0.7,1.8,2470.084,13.33,0.022,282.8
2020-01-28T02:16:02,42.805,6.029,-0.009,0.035,-0.008,105.0,115.0,103.0,13.4,1505.3,324.4,-0.7,1.8,2470.116,13.33,0.036,345.6
2020-01-28T02:19:02,42.805,6.029,-0.023,0.009,-0.007,106.0,114.0,103.0,13.4,1505.3,327.6,-0.7,1.8,2470.089,13.33,0.024,291.4
2020-01-28T02:22:02,42.805,6.029,-0.01,0.034,0.001,107.0,114.0,103.0,13.3,1505.4,325.3,-0.7,1.8,2470.047,13.34,0.035,343.6
2020-01-28T02:25:02,42.805,6.029,-0.048,0.009,-0.061,106.0,114.0,103.0,13.4,1505.4,326.9,-0.7,1.9,2470.065,13.34,0.048,280.6
2020-01-28T02:28:02,42.805,6.029,-0.034,0.018,-0.008,107.0,115.0,103.0,13.4,1505.4,325.2,-0.7,1.9,2470.092,13.34,0.038,297.9
2020-01-28T02:31:02,42.805,6.029,-0.026,0.031,-0.017,107.0,115.0,103.0,13.4,1505.4,328.5,-0.7,1.9,2470.086,13.34,0.04,320.0
2020-01-28T02:34:02,42.805,6.029,-0.034,0.022,-0.013,107.0,115.0,103.0,13.4,1505.4,323.3,-0.7,1.8,2470.069,13.34,0.04,302.9
2020-01-28T02:37:02,42.805,6.029,-0.039,0.005,-0.024,105.0,115.0,103.0,13.3,1505.4,325.0,-0.7,1.8,2470.073,13.34,0.039,277.3
2020-01-28T02:40:02,42.805,6.029,-0.037,0.024,-0.038,106.0,114.0,103.0,13.3,1505.4,326.7,-0.7,1.9,2470.049,13.34,0.044,303.0
2020-01-28T02:43:02,42.805,6.029,-0.039,0.022,-0.052,107.0,115.0,103.0,13.4,1505.4,326.5,-0.7,1.8,2470.056,13.34,0.044,299.4
2020-01-28T02:46:02,42.805,6.029,-0.03,0.016,-0.024,106.0,115.0,104.0,13.3,1505.4,327.5,-0.7,1.9,2470.052,13.34,0.034,298.1
2020-01-28T02:49:02,42.805,6.029,-0.029,0.006,0.018,105.0,115.0,104.0,13.4,1505.4,323.7,-0.7,1.8,2470.039,13.34,0.029,281.7
2020-01-28T02:52:02,42.805,6.029,-0.031,0.016,-0.026,107.0,115.0,103.0,13.4,1505.4,326.5,-0.7,1.8,2470.077,13.34,0.034,297.3
2020-01-28T02:55:02,42.805,6.029,-0.047,0.025,-0.005,107.0,115.0,103.0,13.4,1505.3,324.4,-0.7,1.8,2470.05,13.33,0.053,298.0
2020-01-28T02:58:02,42.805,6.029,-0.028,0.029,0.019,108.0,116.0,103.0,13.3,1505.4,327.9,-0.7,1.9,2470.096,13.34,0.04,316.0
2020-01-28T03:04:02,42.805,6.029,-0.02,0.031,-0.008,108.0,115.0,105.0,13.4,1505.3,324.0,-0.7,1.8,2470.094,13.32,0.036,327.2
2020-01-28T03:07:02,42.805,6.029,-0.036,0.005,-0.021,109.0,116.0,102.0,13.4,1505.3,324.8,-0.7,1.8,2470.125,13.32,0.036,277.9
2020-01-28T03:10:02,42.805,6.029,-0.011,0.02,-0.015,106.0,114.0,104.0,13.3,1505.3,326.5,-0.7,1.9,2470.091,13.33,0.022,331.2
2020-01-28T03:13:02,42.805,6.029,-0.02,-0.002,0.025,106.0,115.0,103.0,13.4,1505.3,325.6,-0.7,1.8,2470.067,13.33,0.02,264.3
2020-01-28T03:16:02,42.805,6.029,-0.014,0.015,-0.001,107.0,115.0,103.0,13.4,1505.3,325.9,-0.7,1.8,2470.088,13.33,0.02,317.0
2020-01-28T03:19:02,42.805,6.029,-0.001,0.017,-0.01,107.0,114.0,104.0,13.4,1505.3,326.7,-0.8,1.9,2470.073,13.33,0.017,356.6
2020-01-28T03:22:02,42.805,6.029,-0.024,0.027,-0.006,107.0,115.0,103.0,13.4,1505.3,328.0,-0.7,1.8,2470.117,13.33,0.036,318.4
2020-01-28T03:25:02,42.805,6.029,-0.019,0.03,0.02,106.0,114.0,103.0,13.4,1505.3,327.2,-0.7,1.8,2470.097,13.33,0.035,327.7
2020-01-28T03:28:02,42.805,6.029,-0.021,0.039,-0.006,107.0,113.0,103.0,13.4,1505.3,325.6,-0.7,1.8,2470.064,13.33,0.044,331.7
2020-01-28T03:31:02,42.805,6.029,-0.013,0.012,-0.011,106.0,113.0,103.0,13.4,1505.3,326.7,-0.7,1.8,2470.104,13.33,0.017,312.7
2020-01-28T03:34:02,42.805,6.029,-0.017,0.019,-0.025,106.0,115.0,102.0,13.3,1505.3,326.5,-0.7,1.9,2470.084,13.33,0.025,318.2
2020-01-28T03:37:02,42.805,6.029,-0.024,0.026,-0.015,106.0,113.0,103.0,13.3,1505.3,323.0,-0.7,1.8,2470.056,13.33,0.035,317.3
2020-01-28T03:40:02,42.805,6.029,-0.037,0.029,-0.034,105.0,114.0,102.0,13.4,1505.3,324.5,-0.7,1.8,2470.059,13.33,0.047,308.1
2020-01-28T03:43:02,42.805,6.029,-0.038,0.018,-0.028,106.0,114.0,102.0,13.3,1505.3,324.4,-0.7,1.8,2470.069,13.33,0.042,295.3
2020-01-28T03:46:02,42.805,6.029,-0.029,0.026,-0.028,106.0,114.0,103.0,13.4,1505.3,325.4,-0.7,1.8,2470.104,13.33,0.038,311.9
2020-01-28T03:49:02,42.805,6.029,-0.003,0.033,-0.001,106.0,116.0,102.0,13.4,1505.3,326.7,-0.7,1.8,2470.11,13.33,0.033,354.8
2020-01-28T03:52:02,42.805,6.029,0.004,0.02,-0.009,106.0,116.0,102.0,13.4,1505.3,328.2,-0.7,1.8,2470.045,13.33,0.02,11.3
2020-01-28T03:55:02,42.805,6.029,-0.031,0.012,-0.018,106.0,114.0,103.0,13.4,1505.3,327.7,-0.7,1.8,2470.037,13.33,0.033,291.2
2020-01-28T03:58:02,42.805,6.029,-0.016,0.018,-0.026,108.0,115.0,103.0,13.4,1505.3,324.6,-0.7,1.8,2470.045,13.33,0.024,318.4
2020-01-28T04:04:02,42.805,6.029,-0.01,0.014,-0.018,107.0,115.0,102.0,13.4,1505.3,326.3,-0.7,1.8,2470.132,13.31,0.017,324.5
2020-01-28T04:07:02,42.805,6.029,-0.038,0.029,-0.008,104.0,114.0,103.0,13.4,1505.3,327.5,-0.7,1.8,2470.087,13.32,0.047,307.3
2020-01-28T04:10:02,42.805,6.029,-0.031,0.033,-0.027,105.0,115.0,101.0,13.4,1505.3,326.5,-0.7,1.9,2470.106,13.32,0.045,316.8
2020-01-28T04:13:02,42.805,6.029,-0.027,0.033,0.0,108.0,115.0,104.0,13.3,1505.3,326.7,-0.7,1.8,2470.089,13.32,0.042,320.7
2020-01-28T04:16:02,42.805,6.029,0.0,0.051,0.0,105.0,114.0,102.0,13.3,1505.3,325.9,-0.7,1.9,2470.059,13.33,0.051,0.0
2020-01-28T04:19:02,42.805,6.029,-0.02,0.033,0.01,104.0,114.0,102.0,13.3,1505.3,323.9,-0.7,1.8,2470.093,13.33,0.038,328.8
2020-01-28T04:22:02,42.805,6.029,-0.024,0.027,0.018,107.0,116.0,100.0,13.4,1505.3,326.6,-0.7,1.8,2470.062,13.33,0.036,318.4
2020-01-28T04:25:02,42.805,6.029,-0.014,0.039,-0.014,106.0,115.0,104.0,13.4,1505.3,324.4,-0.7,1.8,2470.113,13.33,0.041,340.3
2020-01-28T04:28:02,42.805,6.029,-0.016,0.015,0.012,106.0,113.0,102.0,13.4,1505.3,326.2,-0.7,1.9,2470.072,13.33,0.021,313.1
2020-01-28T04:31:02,42.805,6.029,-0.005,0.031,-0.033,105.0,114.0,102.0,13.4,1505.3,328.5,-0.7,1.8,2470.121,13.33,0.031,350.8
2020-01-28T04:34:02,42.805,6.029,-0.02,0.036,0.007,106.0,113.0,101.0,13.4,1505.3,324.9,-0.7,1.9,2470.118,13.33,0.041,330.9
2020-01-28T04:37:02,42.805,6.029,-0.02,0.023,-0.003,105.0,116.0,103.0,13.3,1505.3,328.4,-0.7,1.8,2470.082,13.33,0.03,319.0
2020-01-28T04:40:02,42.805,6.029,0.002,0.04,-0.015,106.0,113.0,103.0,13.4,1505.3,327.2,-0.7,1.8,2470.12,13.33,0.04,2.9
2020-01-28T04:43:02,42.805,6.029,0.005,0.039,-0.016,105.0,114.0,103.0,13.3,1505.3,325.4,-0.7,1.8,2470.109,13.33,0.039,7.3
2020-01-28T04:46:02,42.805,6.029,-0.007,0.037,-0.003,105.0,114.0,103.0,13.3,1505.3,324.9,-0.7,1.8,2470.047,13.33,0.037,349.3
2020-01-28T04:49:02,42.805,6.029,-0.016,0.046,0.016,105.0,114.0,102.0,13.4,1505.3,323.6,-0.7,1.9,2470.098,13.33,0.048,340.8
2020-01-28T04:52:02,42.805,6.029,-0.02,0.021,-0.01,106.0,116.0,102.0,13.3,1505.3,326.2,-0.7,1.8,2470.12,13.33,0.028,316.4
2020-01-28T04:55:02,42.805,6.029,-0.027,0.034,-0.017,105.0,116.0,103.0,13.3,1505.3,326.9,-0.7,1.9,2470.075,13.33,0.043,321.5
2020-01-28T04:58:03,42.805,6.029,-0.038,0.04,0.0,108.0,114.0,102.0,13.4,1505.3,328.7,-0.7,1.8,2470.077,13.33,0.055,316.5
2020-01-28T05:04:02,42.805,6.029,-0.039,0.033,-0.039,104.0,117.0,103.0,13.4,1505.3,323.3,-0.7,1.9,2470.117,13.31,0.051,310.2
2020-01-28T05:07:02,42.805,6.029,-0.022,0.051,0.0,106.0,114.0,102.0,13.4,1505.3,323.7,-0.7,1.8,2470.131,13.31,0.055,336.7
2020-01-28T05:10:02,42.805,6.029,-0.044,0.036,-0.042,106.0,116.0,101.0,13.4,1505.3,324.6,-0.7,1.9,2470.146,13.32,0.056,309.3
2020-01-28T05:13:02,42.805,6.029,-0.022,0.031,-0.021,105.0,116.0,102.0,13.4,1505.3,328.0,-0.7,1.8,2470.125,13.32,0.038,324.6
2020-01-28T05:16:03,42.805,6.029,-0.034,0.029,-0.029,105.0,115.0,102.0,13.3,1505.3,326.6,-0.7,1.8,2470.117,13.33,0.044,310.5
2020-01-28T05:19:03,42.805,6.029,-0.026,0.02,-0.023,106.0,115.0,103.0,13.4,1505.3,327.1,-0.7,1.9,2470.15,13.33,0.032,307.6
2020-01-28T05:22:02,42.805,6.029,-0.006,0.034,-0.003,108.0,114.0,102.0,13.3,1505.3,327.2,-0.7,1.9,2470.156,13.33,0.034,350.0
2020-01-28T05:25:03,42.805,6.029,-0.003,0.03,-0.012,105.0,114.0,103.0,13.4,1505.3,326.4,-0.7,1.9,2470.144,13.33,0.03,354.3
2020-01-28T05:28:02,42.805,6.029,-0.017,0.013,-0.016,105.0,113.0,103.0,13.4,1505.3,325.9,-0.7,1.9,2470.12,13.33,0.021,307.4
2020-01-28T05:31:02,42.805,6.029,-0.013,0.026,-0.031,104.0,116.0,102.0,13.3,1505.3,324.5,-0.7,1.8,2470.098,13.33,0.029,333.4
2020-01-28T05:34:03,42.805,6.029,-0.025,0.018,-0.013,105.0,113.0,102.0,13.3,1505.3,328.5,-0.7,1.9,2470.143,13.33,0.03,305.8
2020-01-28T05:37:02,42.805,6.029,-0.03,0.043,-0.004,106.0,116.0,101.0,13.4,1505.3,326.1,-0.7,1.9,2470.142,13.33,0.052,325.1
2020-01-28T05:40:03,42.805,6.029,-0.041,0.02,-0.052,104.0,115.0,101.0,13.4,1505.3,326.0,-0.7,1.9,2470.108,13.33,0.045,296.0
2020-01-28T05:43:03,42.805,6.029,-0.037,0.025,-0.053,106.0,115.0,102.0,13.3,1505.3,325.7,-0.7,1.8,2470.122,13.33,0.044,304.0
2020-01-28T05:46:03,42.805,6.029,-0.027,0.029,-0.02,106.0,116.0,101.0,13.3,1505.3,324.6,-0.7,1.8,2470.138,13.33,0.039,317.0
2020-01-28T05:49:02,42.805,6.029,-0.013,0.041,0.021,107.0,115.0,102.0,13.3,1505.3,325.6,-0.7,1.8,2470.131,13.33,0.043,342.4
2020-01-28T05:52:02,42.805,6.029,-0.007,0.03,-0.009,105.0,115.0,101.0,13.4,1505.3,325.9,-0.7,1.8,2470.171,13.33,0.03,346.9
2020-01-28T05:55:03,42.805,6.029,-0.011,0.032,0.014,104.0,116.0,101.0,13.4,1505.3,326.9,-0.7,1.8,2470.077,13.33,0.033,341.0
2020-01-28T05:58:02,42.805,6.029,-0.015,0.02,-0.021,108.0,114.0,102.0,13.4,1505.3,328.0,-0.7,1.8,2470.127,13.33,0.025,323.1
2020-01-28T06:04:02,42.805,6.029,0.0,0.045,0.0,106.0,115.0,101.0,13.4,1505.3,323.6,-0.7,1.8,2470.195,13.31,0.045,0.0
2020-01-28T06:07:02,42.805,6.029,-0.017,0.032,-0.045,105.0,115.0,103.0,13.4,1505.3,323.9,-0.8,1.8,2470.145,13.31,0.036,332.0
2020-01-28T06:10:03,42.805,6.029,0.006,0.063,0.021,104.0,115.0,100.0,13.4,1505.3,326.6,-0.7,1.8,2470.173,13.32,0.063,5.4
2020-01-28T06:13:03,42.805,6.029,-0.022,0.04,-0.017,105.0,113.0,101.0,13.3,1505.3,325.5,-0.7,1.9,2470.189,13.32,0.045,331.2
2020-01-28T06:16:02,42.805,6.029,-0.009,0.022,-0.007,105.0,114.0,102.0,13.4,1505.3,327.2,-0.7,1.9,2470.159,13.32,0.023,337.8
2020-01-28T06:19:02,42.805,6.029,-0.03,0.025,0.019,105.0,113.0,102.0,13.4,1505.3,328.2,-0.7,1.9,2470.148,13.32,0.039,309.8
2020-01-28T06:22:02,42.805,6.029,-0.01,0.041,0.001,104.0,115.0,103.0,13.3,1505.3,327.1,-0.7,1.8,2470.163,13.33,0.042,346.3
2020-01-28T06:25:03,42.805,6.029,-0.001,0.042,0.011,106.0,114.0,101.0,13.4,1505.3,327.5,-0.7,1.8,2470.156,13.33,0.042,358.6
2020-01-28T06:28:03,42.805,6.029,-0.004,0.041,0.025,106.0,115.0,102.0,13.4,1505.3,326.4,-0.7,1.8,2470.171,13.33,0.041,354.4
2020-01-28T06:31:03,42.805,6.029,-0.022,0.039,-0.013,105.0,112.0,102.0,13.4,1505.3,325.2,-0.7,1.8,2470.179,13.33,0.044,330.6
2020-01-28T06:34:03,42.805,6.029,-0.011,0.023,-0.017,106.0,115.0,102.0,13.4,1505.3,327.2,-0.7,1.9,2470.168,13.33,0.025,334.4
2020-01-28T06:37:02,42.805,6.029,-0.025,0.023,-0.015,104.0,115.0,101.0,13.4,1505.3,328.1,-0.7,1.8,2470.165,13.33,0.033,312.6
2020-01-28T06:40:03,42.805,6.029,-0.019,0.043,0.009,106.0,114.0,102.0,13.3,1505.3,327.2,-0.7,1.8,2470.201,13.33,0.047,336.2
2020-01-28T06:43:03,42.805,6.029,-0.004,0.025,-0.005,107.0,115.0,101.0,13.4,1505.3,327.3,-0.7,1.8,2470.166,13.33,0.025,350.9
2020-01-28T06:46:03,42.805,6.029,-0.016,0.035,0.013,105.0,113.0,102.0,13.3,1505.3,325.4,-0.7,1.9,2470.223,13.33,0.038,335.4
2020-01-28T06:49:02,42.805,6.029,-0.004,0.034,0.001,105.0,114.0,101.0,13.3,1505.3,327.6,-0.7,1.8,2470.227,13.33,0.034,353.3
2020-01-28T06:52:02,42.805,6.029,0.007,0.034,0.018,104.0,115.0,102.0,13.4,1505.3,325.5,-0.7,1.9,2470.231,13.33,0.034,11.6
2020-01-28T06:55:02,42.805,6.029,0.001,0.032,-0.015,104.0,115.0,101.0,13.3,1505.3,328.1,-0.7,1.8,2470.211,13.33,0.032,1.8
2020-01-28T06:58:02,42.805,6.029,-0.006,0.053,-0.014,104.0,116.0,100.0,13.4,1505.3,323.9,-0.7,1.8,2470.221,13.33,0.053,353.5
2020-01-28T07:04:02,42.805,6.029,-0.028,0.041,0.034,104.0,117.0,101.0,13.4,1505.3,325.2,-0.7,1.8,2470.227,13.31,0.049,325.7
2020-01-28T07:07:02,42.805,6.029,0.004,0.031,-0.002,105.0,115.0,102.0,13.4,1505.3,327.7,-0.7,1.9,2470.246,13.31,0.031,7.3
2020-01-28T07:10:03,42.805,6.029,-0.001,0.03,0.005,105.0,117.0,101.0,13.4,1505.3,323.1,-0.7,1.8,2470.259,13.32,0.03,358.1
2020-01-28T07:13:03,42.805,6.029,-0.011,0.05,0.004,106.0,116.0,102.0,13.4,1505.3,326.7,-0.7,1.9,2470.221,13.32,0.051,347.6
2020-01-28T07:16:03,42.805,6.029,-0.021,0.037,-0.003,106.0,115.0,102.0,13.3,1505.3,327.7,-0.7,1.8,2470.278,13.32,0.042,330.4
2020-01-28T07:19:03,42.805,6.029,-0.009,0.048,-0.005,105.0,112.0,102.0,13.4,1505.3,326.4,-0.7,1.8,2470.254,13.32,0.048,349.4
2020-01-28T07:22:02,42.805,6.029,-0.011,0.064,0.015,106.0,114.0,103.0,13.3,1505.3,325.3,-0.7,1.8,2470.241,13.33,0.064,350.2
2020-01-28T07:25:03,42.805,6.029,-0.006,0.035,0.001,105.0,115.0,101.0,13.3,1505.3,325.0,-0.7,1.8,2470.3,13.33,0.035,350.3
2020-01-28T07:28:03,42.805,6.029,-0.025,0.038,0.009,105.0,113.0,103.0,13.4,1505.3,324.2,-0.7,1.9,2470.218,13.33,0.045,326.7
2020-01-28T07:31:03,42.805,6.029,-0.008,0.036,-0.002,105.0,114.0,101.0,13.3,1505.3,328.1,-0.7,1.8,2470.232,13.33,0.036,347.5
2020-01-28T07:34:03,42.805,6.029,-0.015,0.044,0.016,105.0,114.0,102.0,13.4,1505.3,327.0,-0.7,1.9,2470.222,13.33,0.046,341.2
2020-01-28T07:37:02,42.805,6.029,-0.014,0.023,-0.011,105.0,114.0,102.0,13.4,1505.3,325.5,-0.7,1.8,2470.306,13.33,0.026,328.7
2020-01-28T07:40:03,42.805,6.029,0.011,0.03,0.002,106.0,112.0,103.0,13.3,1505.3,325.6,-0.7,1.9,2470.242,13.33,0.031,20.1
2020-01-28T07:43:03,42.805,6.029,-0.002,0.031,0.0,106.0,115.0,103.0,13.4,1505.3,327.4,-0.7,1.8,2470.235,13.33,0.031,356.3
2020-01-28T07:46:02,42.805,6.029,-0.025,0.035,-0.007,105.0,116.0,102.0,13.4,1505.3,326.4,-0.7,1.8,2470.27,13.33,0.043,324.5
2020-01-28T07:49:03,42.805,6.029,-0.009,0.048,-0.003,104.0,116.0,102.0,13.4,1505.3,325.3,-0.7,1.8,2470.284,13.33,0.048,349.4
2020-01-28T07:52:02,42.805,6.029,-0.031,0.04,-0.002,104.0,116.0,102.0,13.4,1505.3,323.5,-0.7,1.8,2470.238,13.33,0.05,322.2
2020-01-28T07:55:02,42.805,6.029,-0.005,0.047,0.015,103.0,115.0,102.0,13.3,1505.3,325.1,-0.7,1.8,2470.292,13.33,0.047,353.9
2020-01-28T07:58:03,42.805,6.029,-0.006,0.043,0.001,106.0,113.0,102.0,13.3,1505.3,326.5,-0.7,1.8,2470.288,13.33,0.043,352.1
2020-01-28T08:04:02,42.805,6.029,0.01,0.05,0.022,104.0,115.0,101.0,13.4,1505.3,325.4,-0.8,1.8,2470.297,13.31,0.05,11.3
2020-01-28T08:07:02,42.805,6.029,-0.026,0.03,-0.005,105.0,115.0,103.0,13.4,1505.3,325.1,-0.7,1.8,2470.321,13.31,0.039,319.1
2020-01-28T08:10:03,42.805,6.029,-0.015,0.037,-0.035,105.0,113.0,102.0,13.4,1505.3,324.6,-0.7,1.8,2470.307,13.32,0.039,337.9
2020-01-28T08:13:02,42.805,6.029,-0.015,0.04,-0.008,104.0,113.0,104.0,13.3,1505.3,323.7,-0.7,1.8,2470.341,13.32,0.042,339.4
2020-01-28T08:16:02,42.805,6.029,0.0,0.035,-0.005,104.0,115.0,102.0,13.4,1505.3,326.9,-0.7,1.8,2470.321,13.32,0.035,0.0
2020-01-28T08:19:03,42.805,6.029,-0.011,0.043,-0.017,105.0,112.0,104.0,13.3,1505.3,327.3,-0.7,1.8,2470.285,13.33,0.044,345.7
2020-01-28T08:22:02,42.805,6.029,-0.014,0.036,0.012,105.0,114.0,102.0,13.4,1505.3,325.7,-0.7,1.8,2470.293,13.33,0.038,338.8
2020-01-28T08:25:03,42.805,6.029,0.013,0.045,0.027,104.0,113.0,103.0,13.4,1505.3,328.2,-0.7,1.9,2470.287,13.33,0.046,16.1
2020-01-28T08:28:03,42.805,6.029,-0.034,0.033,-0.041,106.0,114.0,102.0,13.3,1505.3,323.3,-0.7,1.9,2470.337,13.33,0.047,314.1
2020-01-28T08:31:03,42.805,6.029,-0.014,0.041,0.022,105.0,114.0,104.0,13.4,1505.3,325.7,-0.7,1.8,2470.308,13.33,0.043,341.1
2020-01-28T08:34:03,42.805,6.029,-0.025,0.021,-0.026,105.0,113.0,101.0,13.3,1505.3,326.0,-0.7,1.9,2470.297,13.33,0.032,310.0
2020-01-28T08:37:02,42.805,6.029,0.013,0.047,0.004,105.0,115.0,101.0,13.3,1505.3,328.0,-0.7,1.8,2470.317,13.33,0.048,15.5
2020-01-28T08:40:03,42.805,6.029,-0.003,0.039,0.006,106.0,113.0,101.0,13.4,1505.3,326.4,-0.7,1.8,2470.338,13.33,0.039,355.6
2020-01-28T08:43:02,42.805,6.029,-0.013,0.022,-0.008,106.0,114.0,102.0,13.4,1505.3,323.5,-0.7,1.8,2470.325,13.33,0.025,329.4
2020-01-28T08:46:02,42.805,6.029,-0.013,0.023,-0.005,105.0,114.0,101.0,13.4,1505.3,325.9,-0.7,1.9,2470.317,13.33,0.026,330.5
2020-01-28T08:49:03,42.805,6.029,0.009,0.032,0.01,106.0,113.0,102.0,13.4,1505.3,323.9,-0.7,1.8,2470.321,13.33,0.033,15.7
2020-01-28T08:52:02,42.805,6.029,-0.012,0.044,-0.023,106.0,113.0,102.0,13.4,1505.3,327.8,-0.7,1.8,2470.371,13.33,0.045,344.7
2020-01-28T08:55:02,42.805,6.029,-0.021,0.006,-0.035,105.0,115.0,101.0,13.4,1505.3,326.3,-0.7,1.8,2470.329,13.33,0.021,285.9
2020-01-28T08:58:03,42.805,6.029,-0.012,0.033,-0.016,104.0,113.0,101.0,13.4,1505.3,328.1,-0.7,1.8,2470.316,13.33,0.035,340.0
2020-01-28T09:04:02,42.805,6.029,-0.007,0.039,0.013,105.0,113.0,103.0,13.4,1505.3,326.0,-0.8,1.8,2470.359,13.31,0.039,349.8
2020-01-28T09:07:02,42.805,6.029,-0.009,0.03,-0.018,105.0,113.0,102.0,13.3,1505.3,325.9,-0.7,1.8,2470.343,13.32,0.031,343.3
2020-01-28T09:10:03,42.805,6.029,-0.013,0.024,-0.014,104.0,113.0,102.0,13.4,1505.3,327.0,-0.7,1.8,2470.352,13.32,0.027,331.6
2020-01-28T09:16:02,42.805,6.029,-0.006,0.042,-0.008,107.0,113.0,102.0,13.4,1505.3,325.5,-0.7,1.8,2470.38,13.31,0.042,351.9
2020-01-28T09:19:03,42.805,6.029,-0.009,0.028,-0.016,105.0,114.0,102.0,13.3,1505.3,324.9,-0.7,1.8,2470.362,13.31,0.029,342.2
2020-01-28T09:22:02,42.805,6.029,-0.021,0.025,-0.003,106.0,114.0,102.0,13.4,1505.3,324.7,-0.7,1.9,2470.326,13.32,0.032,320.0
2020-01-28T09:25:03,42.805,6.029,-0.011,0.028,0.013,106.0,113.0,103.0,13.4,1505.3,325.9,-0.7,1.8,2470.325,13.32,0.03,338.6
2020-01-28T09:28:03,42.805,6.029,-0.013,0.021,-0.014,106.0,113.0,102.0,13.3,1505.3,327.7,-0.7,1.8,2470.339,13.33,0.024,328.2
2020-01-28T09:31:03,42.805,6.029,-0.037,0.031,0.0,105.0,113.0,102.0,13.4,1505.3,326.8,-0.7,1.8,2470.371,13.33,0.048,310.0
2020-01-28T09:34:03,42.805,6.029,-0.024,0.022,0.008,105.0,113.0,102.0,13.4,1505.3,323.1,-0.7,1.9,2470.357,13.33,0.032,312.5
2020-01-28T09:37:02,42.805,6.029,-0.004,0.025,-0.025,103.0,112.0,103.0,13.4,1505.3,328.0,-0.7,1.8,2470.258,13.33,0.025,350.9
2020-01-28T09:40:03,42.805,6.029,0.005,0.024,-0.01,106.0,114.0,102.0,13.4,1505.3,326.9,-0.7,1.8,2470.328,13.33,0.024,11.8
2020-01-28T09:43:03,42.805,6.029,-0.018,0.02,-0.016,106.0,112.0,101.0,13.4,1505.3,323.6,-0.7,1.8,2470.389,13.33,0.026,318.0
2020-01-28T09:46:03,42.805,6.029,-0.008,0.016,-0.007,106.0,113.0,102.0,13.3,1505.3,328.0,-0.7,1.9,2470.343,13.33,0.017,333.4
2020-01-28T09:49:03,42.805,6.029,0.02,0.027,0.022,104.0,113.0,101.0,13.4,1505.3,326.6,-0.7,1.8,2470.361,13.33,0.033,36.5
2020-01-28T09:52:02,42.805,6.029,-0.021,0.019,-0.014,105.0,113.0,102.0,13.4,1505.3,325.8,-0.7,1.8,2470.31,13.33,0.028,312.1
2020-01-28T09:55:03,42.805,6.029,0.001,0.028,0.014,104.0,112.0,101.0,13.4,1505.3,324.5,-0.7,1.8,2470.359,13.33,0.028,2.0
2020-01-28T09:58:02,42.805,6.029,-0.023,0.018,0.009,104.0,112.0,102.0,13.4,1505.3,323.2,-0.7,1.8,2470.329,13.33,0.029,308.0